Theta_e
320 319 320 322 323 319 318 318 316 314 314 321 322 327 329 330 330 327 327 324 323 321 321 322 324 325 325 325 325 326 326 327 328 328 329 328 326 324
321 320 320 320 321 318 319 319 320 318 313 321 322 327 326 327 329 326 325 323 321 321 321 321 320 320 321 321 321 322 323 323 323 323 324 323 322 320
322 322 321 321 322 319 318 317 318 319 317 320 323 325 323 323 323 323 322 319 319 320 321 318 317 317 317 317 317 318 319 319 319 319 319 319 319 316
322 320 320 325 321 321 319 317 316 318 320 318 320 321 321 322 320 320 322 324 323 321 318 317 315 314 314 313 313 313 313 314 315 315 315 315 314 311
323 323 323 323 322 323 322 321 321 321 321 319 317 320 320 321 321 321 320 320 321 319 314 314 313 313 312 311 310 309 308 308 308 309 310 310 310 308
325 325 324 323 322 323 323 322 322 321 321 318 318 318 320 320 319 316 315 317 313 313 311 311 311 311 310 309 310 308 306 304 303 303 304 304 304 304
324 324 324 323 321 322 323 322 321 320 319 318 317 317 316 315 314 315 312 311 309 309 306 305 304 304 305 308 310 307 304 302 301 301 301 300 300 300
321 322 322 320 317 315 316 316 320 320 318 317 316 315 316 315 315 313 311 309 305 308 304 301 302 300 299 300 303 302 301 300 300 300 299 298 298 298
320 323 323 321 320 319 310 311 310 311 316 319 316 315 314 315 315 313 313 310 306 305 304 298 298 295 297 299 300 299 299 298 299 298 298 298 297 296
321 324 322 321 320 320 320 319 319 319 319 320 318 318 318 317 317 315 311 307 306 305 304 297 297 295 295 295 299 298 298 297 297 297 297 297 296 295
324 324 323 321 305 307 320 318 317 314 307 305 304 304 303 304 312 312 309 306 303 303 305 299 297 294 292 291 293 298 297 296 296 296 296 296 295 295
320 318 309 315 302 305 320 319 316 315 315 314 313 308 309 309 308 313 311 307 305 303 306 300 297 295 293 293 291 293 292 295 295 295 296 296 296 291
318 317 314 301 301 302 309 319 316 317 311 315 316 316 316 312 315 312 310 311 307 306 308 302 299 297 296 292 289 289 289 287 290 291 295 295 295 293
317 317 309 299 300 301 308 300 303 311 317 315 316 315 313 313 315 315 313 313 312 313 310 306 301 300 298 292 292 289 287 287 288 288 289 292 294 294
318 310 298 298 298 300 300 303 307 319 316 313 313 310 311 314 319 316 314 314 311 313 313 309 305 303 302 299 297 291 289 289 290 289 290 289 290 289
304 307 306 307 307 310 311 314 322 321 317 315 313 312 314 314 313 312 310 309 308 302 302 304 308 306 304 302 299 295 295 295 291 292 293 292 291 291
308 315 315 316 315 317 320 321 320 319 317 316 316 315 315 315 313 310 309 307 306 302 299 295 293 299 298 301 298 296 296 295 295 294 293 292 292 293
312 312 314 316 317 317 319 320 318 316 318 318 315 316 316 316 314 311 308 307 305 303 300 295 293 294 293 291 295 294 294 294 293 293 292 290 288 291
313 312 314 315 316 317 318 319 319 319 318 318 316 316 316 317 309 315 310 307 305 303 301 298 294 294 291 291 290 292 293 292 292 290 289 289 289 291
315 315 314 316 317 317 318 317 316 317 317 317 315 317 317 317 314 316 315 312 308 303 300 297 296 294 297 297 290 288 288 291 291 289 289 287 287 289
314 316 316 315 316 317 317 316 317 316 317 318 317 317 317 316 315 315 314 300 301 304 303 301 301 292 290 290 288 286 287 290 292 290 288 287 286 287
317 317 317 317 316 317 317 317 318 314 315 317 318 318 317 316 315 313 312 309 306 310 308 303 294 292 291 292 290 288 286 285 290 292 292 291 287 283
319 319 319 318 320 317 317 317 316 316 316 316 317 317 317 315 315 313 311 310 310 308 299 294 292 291 291 291 289 287 286 285 286 287 289 291 293 293
Wind_Speed
5 5 4 3 4 4 4 5 6 5 3 2 2 4 4 6 8 9 10 21 24 24 23 21 18 15 13 14 13 12 13 11 11 11 11 11 10 10
2 4 3 3 3 3 4 4 4 7 5 2 2 5 7 7 11 10 13 23 26 25 20 19 16 14 13 13 14 15 13 12 12 12 11 11 12 13
2 3 3 5 6 4 3 3 4 5 9 3 3 9 9 11 11 11 14 15 15 24 21 13 13 15 15 14 14 14 12 13 13 12 12 13 14 14
3 2 1 3 5 4 4 5 5 5 11 11 5 5 11 13 14 16 11 11 13 17 17 15 14 14 13 13 12 12 12 13 13 13 14 14 14 14
4 3 3 5 7 7 7 8 8 7 9 9 6 7 9 11 11 10 11 12 9 19 17 15 12 14 13 12 12 12 13 13 12 13 14 14 13 14
3 4 4 6 9 9 9 9 9 9 10 10 10 10 9 9 11 12 11 8 8 9 16 14 12 14 12 12 12 14 14 13 12 12 12 12 12 13
4 4 3 6 9 10 9 11 11 9 10 10 9 9 10 11 12 9 11 9 7 4 6 4 4 5 5 9 12 14 13 12 12 12 12 12 12 11
5 4 4 10 10 13 11 11 12 13 12 10 9 12 12 11 10 10 12 10 5 2 4 4 3 4 3 4 8 11 12 13 13 13 12 12 12 11
5 4 5 5 8 9 12 13 11 11 10 15 15 12 15 14 13 12 11 6 4 4 7 3 2 3 3 4 8 9 10 11 12 13 13 12 11 10
5 5 6 7 8 10 11 12 11 11 10 9 14 13 15 11 10 11 10 9 8 3 3 4 1 2 2 1 5 7 9 10 11 11 11 11 9 8
5 5 7 9 10 13 13 13 13 11 14 18 15 17 15 14 12 11 9 11 5 2 1 4 3 2 2 2 3 6 7 9 9 10 10 10 9 7
5 5 9 10 12 13 13 14 12 11 13 13 11 11 12 11 9 4 10 10 6 2 4 5 3 4 2 2 4 4 3 7 9 9 9 10 8 3
4 4 4 11 12 11 12 10 12 12 14 12 10 8 7 6 4 5 6 9 7 3 6 5 4 3 2 2 2 4 5 3 4 5 10 9 7 7
5 4 4 10 12 13 10 15 16 14 9 9 8 6 6 4 3 5 6 4 2 1 9 6 4 5 4 3 3 2 3 3 4 3 3 4 7 5
5 7 11 12 14 13 18 17 11 9 9 8 7 4 3 4 4 5 4 4 3 2 6 4 4 6 4 4 4 4 4 5 5 4 4 4 4 4
9 6 6 8 8 10 11 9 7 7 8 8 6 3 3 3 2 2 3 2 3 2 4 3 6 7 4 4 4 4 4 5 6 6 6 3 3 4
8 5 5 5 7 7 6 5 5 6 6 5 5 5 4 3 3 2 2 2 3 4 3 2 4 3 4 4 3 4 5 3 4 5 4 3 2 3
4 5 5 6 8 9 8 8 5 7 5 5 4 5 5 5 4 3 2 4 4 4 3 3 2 2 2 3 4 3 3 4 3 5 3 4 2 3
3 4 6 9 8 7 10 7 7 5 5 5 5 6 6 6 5 6 5 4 4 4 4 4 4 4 3 5 2 6 4 4 5 3 3 3 3 2
4 6 7 7 7 8 8 5 4 5 5 5 6 8 8 8 7 7 8 8 6 4 4 4 5 5 8 7 4 2 4 5 4 5 4 3 2 5
4 5 6 7 7 7 6 5 6 7 8 7 8 8 9 8 8 8 8 8 7 5 7 8 10 6 5 5 2 2 1 8 2 6 5 4 3 3
5 5 5 7 8 8 8 8 8 7 8 8 8 9 9 9 10 9 8 7 9 10 10 3 5 6 4 6 6 5 4 0 6 9 4 10 6 4
7 6 5 5 7 8 9 9 10 10 10 10 9 10 10 10 10 10 10 10 8 8 5 5 4 2 3 5 6 4 5 4 3 3 1 4 6 6
Wind_Direction
221 209 193 193 177 155 180 173 142 137 138 89 106 93 90 109 112 115 127 122 124 132 129 125 119 128 143 128 129 122 116 119 121 115 110 113 111 109
200 158 171 166 134 168 165 147 108 133 126 109 88 118 105 100 115 117 130 123 123 112 115 120 121 133 120 117 114 110 114 118 109 106 108 115 115 111
165 151 160 149 179 167 122 93 116 122 125 84 71 122 114 113 104 110 125 120 115 127 137 127 123 115 114 114 117 118 116 114 116 119 114 109 107 111
184 158 73 143 159 165 147 128 117 130 135 125 124 122 118 119 118 117 121 129 126 119 117 118 119 111 115 113 114 123 123 116 113 113 111 107 111 117
190 145 115 113 112 131 129 121 120 119 126 133 121 124 121 125 125 106 107 101 98 95 83 88 93 104 106 117 117 115 108 106 110 108 110 115 117 115
156 156 118 122 121 120 115 118 124 126 122 121 132 131 130 122 119 120 109 105 98 75 69 76 84 88 98 104 108 104 104 108 110 108 104 107 115 121
101 98 112 122 112 122 130 126 132 128 130 134 133 129 128 132 129 120 108 108 67 72 81 59 71 71 65 79 105 115 113 110 109 119 129 131 125 125
113 90 100 118 120 120 121 126 143 143 142 140 139 137 134 125 124 124 124 128 118 91 101 67 47 71 64 62 113 118 124 134 138 138 139 139 142 143
108 102 100 106 115 122 105 114 103 109 134 140 137 137 132 139 132 135 138 125 116 138 105 76 47 72 52 82 120 141 138 135 144 154 159 155 152 149
104 95 115 117 121 126 115 118 107 114 124 137 134 136 132 133 134 132 122 102 93 104 115 111 117 74 88 108 150 143 152 161 163 163 165 164 163 169
93 89 116 119 124 124 121 110 100 79 62 76 85 102 108 116 128 123 128 131 124 194 104 107 151 113 179 209 204 173 178 183 182 183 183 182 188 187
84 88 105 127 124 128 127 125 120 119 109 102 98 98 119 126 129 126 145 143 127 92 209 105 140 148 199 187 183 191 178 207 204 205 206 208 199 190
107 101 113 124 124 116 120 129 126 113 107 119 124 128 129 127 117 131 144 150 152 171 175 121 156 159 109 151 235 181 187 197 197 208 212 215 218 196
123 113 118 122 112 101 93 111 113 112 117 129 140 128 131 153 159 152 155 174 216 136 167 131 142 164 151 154 202 168 203 218 193 218 194 193 207 216
124 117 116 108 102 100 123 129 128 129 133 141 149 151 160 152 127 103 88 146 75 33 167 180 152 161 158 185 163 167 149 212 203 200 198 206 193 182
97 104 111 99 101 128 134 138 136 141 150 150 153 138 125 114 116 127 136 145 97 356 29 16 182 157 188 199 163 170 195 185 184 207 204 196 200 200
116 116 118 115 125 141 143 135 129 132 150 146 145 146 129 131 149 174 128 124 159 184 226 35 41 89 57 140 185 188 177 201 201 174 133 189 208 232
119 138 144 147 155 159 160 163 155 159 161 151 131 146 162 174 180 181 168 175 179 191 177 179 150 96 75 49 53 171 162 164 176 158 117 143 212 221
122 142 154 168 168 169 175 174 175 169 140 155 162 177 179 191 175 203 198 188 212 192 203 173 178 150 151 223 283 36 165 164 144 119 148 158 168 204
156 163 163 167 175 176 175 171 161 162 176 180 182 191 195 196 197 212 207 212 214 192 203 190 205 187 190 215 184 235 346 153 144 152 147 93 63 82
180 178 172 173 176 176 176 177 185 189 196 196 201 202 204 200 210 216 216 211 189 190 218 220 221 131 116 104 100 233 296 9 154 150 141 132 177 174
199 195 183 179 185 185 188 196 200 202 208 210 211 209 209 207 216 212 207 201 207 217 225 186 138 129 158 173 198 163 159 349 33 94 146 145 166 204
206 208 201 196 199 199 201 203 208 214 213 211 209 206 205 208 212 209 211 212 210 212 178 160 148 133 181 187 160 146 151 152 151 156 233 201 215 147